This demonstration page uses our WeatherBlox Daily Observations layout. Learn more.

Left ArrowRight Arrow

Hourly Observations for May 4, 2021

Temp ( °F °C ) Dew Point ( °F °C ) Humidity (%) Winds ( mph kmh ) Pressure ( in mb ) Visibility ( mi km ) Precip ( " mm )
12:53 am 00:53 Cloudy 47 8.3 36 2.2 66 66 ENE 8 13 29.98 1015 10 16 0.00 0.00
1:53 am 01:53 Cloudy 45 7.2 37 2.8 74 74 ENE 8 13 29.98 1015 10 16 0.00 0.00
2:53 am 02:53 Cloudy 44 6.7 37 2.8 76 76 E 5 7 29.97 1015 10 16 0.00 0.00
3:53 am 03:53 Cloudy 39 3.9 36 2.2 89 89 WSW 5 7 29.99 1016 10 16 0.00 0.00
4:53 am 04:53 Cloudy 39 3.9 36 2.2 89 89 WSW 5 7 29.98 1015 10 16 0.00 0.00
5:53 am 05:53 Cloudy 40 4.4 37 2.8 89 89 Calm 29.98 1015 10 16 0.00 0.00
6:53 am 06:53 Cloudy with Light Rain 42 5.6 39 3.9 89 89 S 9 15 29.98 1015 10 16 0.00 0.00
7:53 am 07:53 Cloudy with Light Rain 45 7.2 39 3.9 80 80 SSW 13 20 29.99 1016 10 16 0.01 0.25
8:53 am 08:53 Cloudy with Light Rain 49 9.4 41 5 74 74 WNW 5 7 29.99 1016 10 16 0.00 0.00
9:53 am 09:53 Partly Cloudy with Light Rain 52 11.1 39 3.9 61 61 WSW 9 15 29.98 1015 10 16 0.00 0.00
10:53 am 10:53 Mostly Cloudy with Light Rain 55 12.8 38 3.3 53 53 W 12 19 29.96 1015 10 16 0.00 0.00
11:53 am 11:53 Cloudy with Light Rain 56 13.3 37 2.8 49 49 W 12 19 29.96 1015 10 16 0.00 0.00
12:53 pm 12:53 Mostly Cloudy with Light Rain 55 12.8 35 1.7 47 47 WSW 7 11 29.96 1014 10 16 0.00 0.00
1:53 pm 13:53 Cloudy with Light Rain 54 12.2 39 3.9 57 57 Calm 29.95 1014 10 16 0.00 0.00
2:37 pm 14:37 Mostly Cloudy with Nearby Thunderstorms 53 11.7 37 2.8 55 55 SW 8 13 29.92 1013 10 16 0.00 0.00
2:48 pm 14:48 Partly Cloudy with Thunderstorms 52 11 39 4 62 62 SSW 14 22 29.93 1013 10 16 0.00 0.00
2:53 pm 14:53 Partly Cloudy with Thunderstorms 53 11.7 40 4.4 61 61 SSW 10 17 29.96 1015 10 16 0.00 0.00
3:03 pm 15:03 Partly Cloudy with Light Rain 52 11.1 40 4.4 64 64 SW 10 17 29.94 1014 10 16 0.00 0.00
3:53 pm 15:53 Mostly Cloudy with Light Rain 58 14.4 36 2.2 44 44 NW 9 15 29.96 1015 10 16 0.00 0.00
4:53 pm 16:53 Partly Cloudy with Light Rain 56 13.3 40 4.4 55 55 NE 16 26 29.99 1016 10 16 0.00 0.00
5:53 pm 17:53 Sunny with Light Rain 57 13.9 39 3.9 51 51 N 6 9 29.98 1015 10 16 0.00 0.00
6:53 pm 18:53 Partly Cloudy with Light Rain 57 13.9 38 3.3 49 49 N 7 11 30.00 1016 10 16 0.00 0.00
7:53 pm 19:53 Sunny 54 12.2 39 3.9 57 57 N 8 13 30.00 1016 10 16 0.00 0.00
8:53 pm 20:53 Partly Cloudy 49 9.4 37 2.8 64 64 N 6 9 30.03 1017 10 16 0.00 0.00
9:53 pm 21:53 Clear 46 7.8 37 2.8 71 71 ENE 6 9 30.05 1018 10 16 0.00 0.00
10:53 pm 22:53 Clear 40 4.4 35 1.7 83 83 S 3 6 30.07 1018 10 16 0.00 0.00
11:53 pm 23:53 Clear 36 2.2 34 1.1 93 93 WSW 8 13 30.10 1019 10 16 0.00 0.00

Powered by AerisWeather